Regional Weather Roundup
Issued by NWS Goodland, KS

Home | Current Version | Previous Version | Text Only | Print | Product List | Glossary Off
Versions: 1 2 3 4 5 6 7 8 9 10 11 12 13 14 15 16 17 18 19 20 21 22 23 24 25 26 27 28 29 30 31 32 33 34 35 36 37 38 39 40 41 42 43 44 45 46 47 48 49 50

233
ASUS43 KGLD 271059
RWRGLD

GOODLAND FORECAST AREA HOURLY WEATHER ROUNDUP
NATIONAL WEATHER SERVICE GOODLAND KS
500 AM MDT TUE SEP 27 2016

...OFFICIAL OBSERVATIONS...

CITY           SKY/WX    TMP DP  RH WIND       PRES   REMARKS
GOODLAND KS    CLEAR     49  39  68 W3        30.17F
HILL CITY KS   CLEAR     47  43  86 W6        30.12S
IMPERIAL NEB   CLEAR     47  40  76 NW7       30.17S
MCCOOK NEB     CLEAR     44  41  89 W5        30.13S
AKRON CO       CLOUDY    47  35  63 W9        30.21F
BURLINGTON CO  CLEAR     45  38  76 W8        30.20F
LIMON CO       CLOUDY    36  27  69 N5        30.26F
$$

...UNOFFICIAL OBSERVATIONS...

CITY           SKY/WX    TMP DP  RH WIND       PRES   REMARKS
COLBY KS       CLEAR     48  43  81 W7        30.17S
LENORA KS        N/A     53  32  45 MISG        N/A
NORTON KS      CLEAR     46  37  71 NW5       30.11R
SHARON SPRINGS   N/A     47  39  74 W8          N/A
KIT CARSON CO    N/A     43  36  77 CALM        N/A
$$




USA.gov is the U.S. government's official web portal to all federal, state and local government web resources and services.